Wind_Speed
13 13 14 14 14 15 15 16 17 18 16 15 13 15 15 15 15 17 19 21 24 27
14 14 15 15 15 15 17 18 18 17 16 15 15 15 15 15 15 19 19 18 20 23
14 15 16 16 16 17 16 16 16 15 16 16 16 16 15 11 14 15 17 15 18 17
11 13 15 15 16 16 15 14 15 16 16 16 16 18 18 17 13 14 14 14 16 15
11 12 13 14 14 14 14 15 15 15 16 16 15 14 15 17 16 15 15 16 14 14
10 12 13 14 14 15 15 15 15 14 15 15 15 14 13 12 12 13 12 12 13 15
9 11 13 15 16 17 17 17 16 15 15 15 15 14 11 10 10 9 9 10 11 13
9 10 12 13 14 16 16 16 15 13 12 13 13 12 11 11 11 10 9 8 8 9
9 10 11 13 14 15 15 13 12 11 10 10 11 10 10 9 10 9 9 9 9 9
10 9 10 11 13 14 13 11 9 8 8 8 9 9 9 8 9 9 9 9 10 11
12 11 11 11 12 12 11 9 8 7 7 7 8 8 9 8 9 9 9 9 10 10
12 11 11 11 12 11 10 8 7 6 6 6 6 5 9 9 9 9 9 9 9 9
13 11 11 12 12 11 10 9 7 6 6 6 6 5 7 10 11 11 10 10 9 8
14 11 10 12 12 11 10 8 7 7 7 7 7 8 9 9 12 13 13 13 12 9
Wind_Direction
358 358 359 357 356 348 346 344 341 333 332 329 325 322 315 309 307 304 294 287 284 279
4 1 3 5 358 354 351 353 350 343 342 339 343 339 329 323 307 311 306 288 284 280
357 356 355 354 354 357 1 355 349 351 347 347 346 352 349 342 335 335 329 309 297 283
345 350 351 350 350 348 350 352 347 343 342 340 340 334 334 336 344 349 344 340 334 318
336 344 346 347 348 349 346 343 337 336 336 338 333 324 321 327 330 337 338 345 340 331
330 338 342 344 346 348 346 342 340 338 336 331 333 338 332 326 328 338 338 341 345 343
316 329 339 343 345 345 344 343 341 340 340 338 338 337 341 345 346 346 351 357 355 350
301 319 331 337 340 342 343 343 346 347 348 350 352 359 4 359 358 359 358 358 359 5
288 309 324 332 337 340 343 345 348 352 359 1 3 12 12 11 6 5 6 8 7 4
269 289 309 323 331 336 340 343 348 351 358 3 7 9 10 12 11 10 7 3 359 359
263 282 299 312 322 329 333 336 339 343 347 353 354 359 360 4 360 356 352 347 347 353
257 277 293 305 315 320 322 325 323 322 322 332 340 13 353 8 358 346 340 336 333 331
247 260 280 295 305 312 316 316 313 309 305 305 309 304 310 335 345 343 339 336 328 320
241 252 272 285 296 304 307 303 299 295 294 294 300 300 300 317 325 330 334 336 334 328
Height
1487 1484 1481 1478 1475 1473 1470 1467 1463 1460 1458 1456 1453 1451 1449 1447 1445 1444 1441 1441 1440 1438
1487 1484 1480 1477 1475 1472 1469 1465 1462 1459 1457 1453 1450 1447 1446 1445 1443 1440 1436 1434 1434 1432
1485 1483 1480 1477 1474 1471 1467 1464 1462 1459 1456 1452 1449 1446 1444 1442 1440 1438 1434 1431 1428 1426
1483 1480 1478 1475 1471 1468 1466 1463 1460 1457 1453 1451 1448 1445 1444 1442 1439 1437 1434 1430 1427 1424
1482 1479 1476 1473 1470 1466 1464 1460 1457 1454 1452 1449 1446 1442 1441 1439 1438 1435 1432 1430 1426 1423
1480 1478 1475 1472 1468 1465 1462 1459 1456 1453 1450 1447 1444 1440 1438 1435 1433 1432 1430 1429 1426 1424
1477 1474 1472 1469 1466 1464 1461 1457 1454 1451 1449 1446 1443 1440 1437 1435 1432 1430 1428 1426 1425 1423
1473 1472 1470 1467 1464 1461 1458 1455 1452 1450 1447 1445 1443 1440 1437 1435 1434 1432 1430 1427 1424 1422
1470 1469 1467 1465 1462 1459 1456 1453 1451 1449 1446 1444 1442 1439 1438 1436 1435 1433 1431 1429 1427 1424
1464 1463 1462 1460 1458 1456 1454 1451 1449 1447 1446 1444 1442 1440 1438 1436 1435 1433 1432 1430 1428 1426
1461 1460 1458 1456 1454 1451 1449 1448 1446 1445 1444 1443 1441 1439 1437 1435 1434 1432 1431 1429 1428 1426
1456 1457 1456 1455 1453 1450 1448 1446 1444 1443 1442 1442 1440 1439 1436 1434 1433 1432 1430 1428 1427 1425
1451 1451 1451 1451 1450 1448 1446 1444 1443 1441 1440 1439 1438 1437 1435 1432 1431 1431 1429 1427 1425 1423
1446 1446 1446 1446 1446 1444 1443 1442 1441 1439 1438 1437 1436 1435 1434 1431 1430 1429 1427 1426 1424 1422